TimeMDT,TemperatureF,Dew PointF,Humidity,Sea Level PressureIn,VisibilityMPH,Wind Direction,Wind SpeedMPH,Gust SpeedMPH,PrecipitationIn,Events,Conditions,WindDirDegrees,DateUTC
12:15 AM,77.0,64.4,65,30.00,10.0,SSE,8.1,-,N/A,,Scattered Clouds,150,2013-07-23 06:15:00
12:35 AM,77.0,64.4,65,30.01,10.0,SSW,8.1,-,N/A,,Mostly Cloudy,210,2013-07-23 06:35:00
12:55 AM,75.2,64.4,69,30.01,10.0,South,5.8,-,N/A,,Scattered Clouds,170,2013-07-23 06:55:00
1:15 AM,75.2,64.4,69,30.01,10.0,SSE,8.1,-,N/A,,Clear,160,2013-07-23 07:15:00
1:35 AM,75.2,64.4,69,30.01,10.0,SSE,9.2,-,N/A,,Clear,150,2013-07-23 07:35:00
1:55 AM,75.2,64.4,69,30.01,10.0,SSE,9.2,-,N/A,,Clear,150,2013-07-23 07:55:00
2:15 AM,73.4,64.4,73,30.01,10.0,SSE,9.2,-,N/A,,Clear,150,2013-07-23 08:15:00
2:35 AM,73.4,64.4,73,30.01,10.0,SE,9.2,-,N/A,,Clear,140,2013-07-23 08:35:00
2:55 AM,73.4,64.4,73,30.00,10.0,SSE,9.2,-,N/A,,Clear,150,2013-07-23 08:55:00
3:15 AM,73.4,64.4,73,30.00,10.0,SSE,10.4,-,N/A,,Clear,150,2013-07-23 09:15:00
3:35 AM,73.4,64.4,73,30.00,10.0,SSE,10.4,-,N/A,,Clear,150,2013-07-23 09:35:00
3:55 AM,71.6,66.2,83,30.00,10.0,SSE,8.1,-,N/A,,Clear,150,2013-07-23 09:55:00
4:15 AM,71.6,66.2,83,30.01,10.0,SSE,6.9,-,N/A,,Clear,160,2013-07-23 10:15:00
4:35 AM,71.6,66.2,83,30.00,10.0,SSE,6.9,-,N/A,,Clear,150,2013-07-23 10:35:00
4:55 AM,69.8,64.4,83,30.00,10.0,SE,5.8,-,N/A,,Clear,140,2013-07-23 10:55:00
5:15 AM,69.8,66.2,88,30.00,10.0,SSE,6.9,-,N/A,,Clear,160,2013-07-23 11:15:00
5:35 AM,69.8,66.2,88,30.00,10.0,SSE,5.8,-,N/A,,Clear,160,2013-07-23 11:35:00
5:55 AM,69.8,66.2,88,30.01,10.0,South,5.8,-,N/A,,Clear,180,2013-07-23 11:55:00
6:15 AM,69.8,66.2,88,30.01,10.0,South,5.8,-,N/A,,Clear,180,2013-07-23 12:15:00
6:55 AM,71.6,66.2,83,30.01,10.0,South,4.6,-,N/A,,Clear,170,2013-07-23 12:55:00
7:15 AM,71.6,66.2,83,30.01,10.0,South,4.6,-,N/A,,Clear,170,2013-07-23 13:15:00
7:35 AM,73.4,66.2,78,30.02,10.0,South,9.2,-,N/A,,Clear,170,2013-07-23 13:35:00
7:55 AM,73.4,66.2,78,30.02,10.0,South,9.2,-,N/A,,Clear,170,2013-07-23 13:55:00
8:15 AM,75.2,66.2,73,30.03,10.0,South,9.2,-,N/A,,Clear,170,2013-07-23 14:15:00
8:55 AM,77.0,66.2,69,30.03,10.0,SSE,8.1,-,N/A,,Clear,150,2013-07-23 14:55:00
9:15 AM,78.8,66.2,65,30.03,10.0,SE,9.2,-,N/A,,Clear,140,2013-07-23 15:15:00
9:35 AM,80.6,66.2,61,30.03,10.0,SSE,8.1,-,N/A,,Clear,150,2013-07-23 15:35:00
9:55 AM,80.6,66.2,61,30.03,10.0,SSE,6.9,-,N/A,,Clear,150,2013-07-23 15:55:00
10:35 AM,82.4,64.4,54,30.02,10.0,SE,9.2,-,N/A,,Clear,140,2013-07-23 16:35:00
10:55 AM,84.2,64.4,51,30.02,10.0,SSE,8.1,-,N/A,,Clear,160,2013-07-23 16:55:00
11:15 AM,86.0,62.6,45,30.02,10.0,SE,10.4,-,N/A,,Clear,140,2013-07-23 17:15:00
11:35 AM,86.0,64.4,48,30.02,10.0,SE,11.5,-,N/A,,Clear,140,2013-07-23 17:35:00
11:55 AM,86.0,62.6,45,30.02,10.0,SSE,8.1,-,N/A,,Clear,150,2013-07-23 17:55:00
12:15 PM,86.0,64.4,48,30.02,10.0,South,5.8,-,N/A,,Clear,180,2013-07-23 18:15:00
12:35 PM,87.8,64.4,46,30.01,10.0,East,6.9,-,N/A,,Clear,90,2013-07-23 18:35:00
12:55 PM,89.6,62.6,40,30.00,10.0,SE,8.1,-,N/A,,Clear,140,2013-07-23 18:55:00
1:15 PM,89.6,62.6,40,30.00,10.0,SSE,9.2,-,N/A,,Clear,150,2013-07-23 19:15:00
1:35 PM,89.6,62.6,40,29.99,10.0,SSE,9.2,-,N/A,,Clear,150,2013-07-23 19:35:00
2:15 PM,91.4,59.0,34,29.98,10.0,SE,8.1,18.4,N/A,,Clear,130,2013-07-23 20:15:00
2:35 PM,91.4,59.0,34,29.97,10.0,SE,10.4,-,N/A,,Clear,130,2013-07-23 20:35:00
2:55 PM,91.4,57.2,31,29.96,10.0,SE,8.1,-,N/A,,Clear,130,2013-07-23 20:55:00
3:15 PM,93.2,59.0,32,29.96,10.0,ESE,12.7,16.1,N/A,,Clear,120,2013-07-23 21:15:00
3:35 PM,93.2,57.2,30,29.96,10.0,South,9.2,-,N/A,,Clear,170,2013-07-23 21:35:00
3:55 PM,93.2,57.2,30,29.95,10.0,SSE,11.5,-,N/A,,Clear,150,2013-07-23 21:55:00
4:15 PM,91.4,57.2,31,29.95,10.0,SE,12.7,-,N/A,,Clear,140,2013-07-23 22:15:00
4:35 PM,91.4,57.2,31,29.95,10.0,SSE,10.4,-,N/A,,Clear,160,2013-07-23 22:35:00
4:55 PM,91.4,57.2,31,29.95,10.0,SSE,12.7,-,N/A,,Clear,160,2013-07-23 22:55:00
5:15 PM,91.4,59.0,34,29.94,10.0,SSE,12.7,-,N/A,,Clear,160,2013-07-23 23:15:00
5:35 PM,91.4,59.0,34,29.94,10.0,South,10.4,-,N/A,,Clear,170,2013-07-23 23:35:00
5:55 PM,89.6,59.0,36,29.93,10.0,South,10.4,-,N/A,,Clear,180,2013-07-23 23:55:00
6:15 PM,89.6,59.0,36,29.93,10.0,South,9.2,-,N/A,,Clear,170,2013-07-24 00:15:00
6:35 PM,89.6,59.0,36,29.94,10.0,South,6.9,-,N/A,,Clear,180,2013-07-24 00:35:00
6:55 PM,89.6,59.0,36,29.93,10.0,SSW,6.9,-,N/A,,Clear,210,2013-07-24 00:55:00
7:15 PM,87.8,60.8,40,29.93,10.0,SSW,4.6,-,N/A,,Clear,210,2013-07-24 01:15:00
7:35 PM,86.0,60.8,43,29.93,10.0,SSW,4.6,-,N/A,,Clear,200,2013-07-24 01:35:00
7:55 PM,86.0,62.6,45,29.93,10.0,Calm,Calm,-,N/A,,Clear,0,2013-07-24 01:55:00
8:15 PM,86.0,62.6,45,29.93,10.0,SW,3.5,-,N/A,,Clear,220,2013-07-24 02:15:00
8:35 PM,84.2,62.6,48,29.94,10.0,Calm,Calm,-,N/A,,Clear,0,2013-07-24 02:35:00
8:55 PM,84.2,62.6,48,29.96,10.0,Calm,Calm,-,N/A,,Clear,0,2013-07-24 02:55:00
9:15 PM,84.2,62.6,48,29.96,10.0,Calm,Calm,-,N/A,,Clear,0,2013-07-24 03:15:00
9:35 PM,82.4,64.4,54,29.97,10.0,Calm,Calm,-,N/A,,Clear,0,2013-07-24 03:35:00
9:55 PM,82.4,62.6,51,29.98,10.0,Calm,Calm,-,N/A,,Clear,0,2013-07-24 03:55:00
10:15 PM,80.6,66.2,61,29.98,10.0,Calm,Calm,-,N/A,,Clear,0,2013-07-24 04:15:00
10:35 PM,80.6,66.2,61,29.99,10.0,Calm,Calm,-,N/A,,Clear,0,2013-07-24 04:35:00
10:55 PM,80.6,66.2,61,29.99,10.0,South,3.5,-,N/A,,Clear,190,2013-07-24 04:55:00
11:15 PM,80.6,64.4,58,29.99,10.0,South,3.5,-,N/A,,Clear,190,2013-07-24 05:15:00
11:35 PM,80.6,64.4,58,29.99,10.0,ESE,3.5,-,N/A,,Clear,110,2013-07-24 05:35:00
11:55 PM,80.6,64.4,58,30.00,10.0,East,3.5,-,N/A,,Clear,90,2013-07-24 05:55:00